Preview of NWS' New Version of Forecast
This preview is not operational and should not be used for support decisions.

Regional Weather Roundup (RWR)

Issued by National Weather Service (NWS)

                            
000
ASUS45 KBOI 241110
RWRID 

IDAHO REGIONAL WEATHER ROUNDUP
NATIONAL WEATHER SERVICE BOISE ID
500 AM MDT MON JUN 24 2019

NOTE: "FAIR" INDICATES FEW OR NO CLOUDS BELOW 12000 FEET
WITH NO SIGNIFICANT WEATHER AND/OR OBSTRUCTIONS TO VISIBILITY

IDZ012-014-241200-
SOUTHWEST IDAHO

  
CITY           SKY/WX    TMP DP  RH WIND       PRES   REMARKS
BOISE          CLEAR     52  41  66 CALM      29.99R                  
CALDWELL       CLEAR     52  42  69 W7        29.99S                  
MOUNTAIN HOME  CLEAR     50  39  65 NW7       29.99R                  
$$

IDZ016-017-241200-
SOUTHCENTRAL IDAHO

  
CITY           SKY/WX    TMP DP  RH WIND       PRES   REMARKS
BURLEY         CLEAR     47  38  71 SW8       29.99S                  
JEROME         CLEAR     50  38  63 SW5       30.00F                  
TWIN FALLS     CLEAR     49  35  58 SW13      30.01S                  
$$

IDZ019>023-241200-
SOUTHEAST IDAHO

  
CITY           SKY/WX    TMP DP  RH WIND       PRES   REMARKS
IDAHO FALLS    CLEAR     48  35  60 SW9       29.98R                  
POCATELLO      CLEAR     52  34  50 SW15      29.99R                  
REXBURG        CLEAR     48  35  60 S7        29.97R                  
$$

IDZ006-010-011-018-031-032-241200-
CENTRAL IDAHO MOUNTAINS

  
CITY           SKY/WX    TMP DP  RH WIND       PRES   REMARKS
MCCALL         CLEAR     38  33  82 CALM      30.01F                  
HAILEY         PTCLDY    43  32  65 N7        30.03S                  
STANLEY          N/A     29  25  85 S3        30.07S                  
SALMON         CLEAR     46  39  76 CALM      30.00S                  
CHALLIS        CLEAR     47  31  53 CALM      30.00S                  
$$

IDZ002-004-006-007-026-241200-
NORTHERN IDAHO

  
CITY           SKY/WX    TMP DP  RH WIND       PRES   REMARKS
LEWISTON       PTCLDY    57  40  52 S5        29.97R                  
LOWELL           N/A     51  49  92 CALM      30.00R                  
COEUR D'ALENE  PTCLDY    51  40  65 S10       29.95R                  
MULLAN PASS    MOCLDY    41  33  73 VRB6      29.99S                  
$$